Weather History for KASE - January, 2013

Change the Weather History Date:

Monday, January 7, 2013

  Actual Average Record
Temperature  
Mean Temperature 19 °F 20 °F  
Max Temperature 34 °F 32 °F 48 °F (2006)
Min Temperature 3 °F 7 °F -16 °F (1982)
Degree Days  
Heating Degree Days 46 45  
Month to date heating degree days 378 318  
Since 1 July heating degree days 3628 4039  
Cooling Degree Days 0 0  
Month to date cooling degree days 0 0  
Year to date cooling degree days 0 0  
Moisture  
Dew Point 2 °F    
Average Humidity 54    
Maximum Humidity 79    
Minimum Humidity 29    
Precipitation  
Precipitation 0.00 in 0.04 in 0.33 in (2012)
Month to date precipitation T 0.26  
Year to date precipitation T 0.26  
Sea Level Pressure  
Sea Level Pressure 30.13 in    
Wind  
Wind Speed 5 mph (SSW)    
Max Wind Speed 12 mph    
Max Gust Speed 13 mph    
Visibility 10 miles    
Events      
T = Trace of Precipitation, MM = Missing Value Source: NWS Daily Summary

Daily Weather History Graph

Daily Weather History Graph

Search for Another Location

Airport or City:

Trip Planner

Search our weather history database for the weather conditions in past years. The results will help you decide how hot, cold, wet, or windy it might be!

Date:

Astronomy

Jan. 07, 2013 Rise Set
Actual Time 7:27 AM MST 5:00 PM MST
Civil Twilight 6:57 AM MST 5:30 PM MST
Nautical Twilight 6:24 AM MST 6:04 PM MST
Astronomical Twilight 5:51 AM MST 6:36 PM MST
Moon 2:54 AM MST (1/7) 1:13 PM MST (1/7)
Length of Visible Light 10h 33m
Length of Day
9h 33m
Waning Crescent, 22% of the Moon is Illuminated
Jan 7
Waning Crescent
Jan 11
New
Jan 18
First Quarter
Jan 26
Full
Feb 3
Last Quarter

Hourly Weather History & Observations

Time (MST) Temp. Windchill Dew Point Humidity Pressure Visibility Wind Dir Wind Speed Gust Speed Precip Events Conditions
12:53 AM 12.0 °F 4.1 °F 3.0 °F 67% 30.12 in 10.0 mi SE 4.6 mph - N/A   Clear
1:53 AM 12.9 °F 3.8 °F 3.9 °F 67% 30.12 in 10.0 mi SE 5.8 mph - N/A   Clear
2:53 AM 6.1 °F -0.9 °F -0.9 °F 73% 30.15 in 10.0 mi Variable 3.5 mph - N/A   Clear
3:53 AM 10.9 °F 1.4 °F -0.0 °F 61% 30.12 in 10.0 mi South 5.8 mph - N/A   Clear
4:53 AM 7.0 °F - -0.9 °F 70% 30.14 in 10.0 mi Calm Calm - N/A   Clear
5:53 AM 3.9 °F - -2.9 °F 73% 30.20 in 10.0 mi Calm Calm - N/A   Clear
6:53 AM 3.9 °F -8.2 °F -2.9 °F 73% 30.25 in 10.0 mi South 6.9 mph - N/A   Clear
7:53 AM 7.0 °F -5.7 °F -2.9 °F 64% 30.23 in 10.0 mi South 8.1 mph - N/A   Clear
8:53 AM 10.0 °F - -0.0 °F 64% 30.22 in 10.0 mi Calm Calm - N/A   Clear
9:53 AM 21.0 °F - 3.0 °F 46% 30.16 in 10.0 mi Calm Calm - N/A   Clear
10:53 AM 25.0 °F 20.7 °F 3.0 °F 39% 30.12 in 10.0 mi NNW 3.5 mph - N/A   Clear
11:53 AM 25.0 °F 17.1 °F 5.0 °F 43% 30.10 in 10.0 mi NNW 6.9 mph - N/A   Clear
12:53 PM 30.9 °F 24.3 °F 6.1 °F 35% 30.04 in 10.0 mi North 6.9 mph - N/A   Clear
1:53 PM 32.0 °F 28.7 °F 3.9 °F 31% 30.01 in 10.0 mi NNW 3.5 mph - N/A   Clear
2:53 PM 32.0 °F 27.5 °F 8.1 °F 37% 30.06 in 10.0 mi NNW 4.6 mph - N/A   Clear
4:53 PM 25.0 °F 19.3 °F 7.0 °F 46% 30.10 in 10.0 mi SSW 4.6 mph - N/A   Clear
5:53 PM 21.9 °F 13.4 °F 5.0 °F 48% 30.14 in 10.0 mi South 6.9 mph - N/A   Clear
6:53 PM 19.9 °F 9.3 °F 3.0 °F 48% 30.15 in 10.0 mi SSW 9.2 mph - N/A   Clear
7:53 PM 15.1 °F 4.2 °F 1.0 °F 54% 30.16 in 10.0 mi SSW 8.1 mph - N/A   Clear
8:53 PM 10.9 °F 0.2 °F -0.9 °F 59% 30.16 in 10.0 mi SSW 6.9 mph - N/A   Clear
9:53 PM 10.9 °F -1.8 °F -0.9 °F 59% 30.12 in 10.0 mi South 9.2 mph - N/A   Clear
10:53 PM 10.0 °F -1.9 °F -2.0 °F 58% 30.08 in 10.0 mi SSW 8.1 mph - N/A   Clear
11:53 PM 10.0 °F - -2.0 °F 58% 30.09 in 10.0 mi Calm Calm - N/A   Clear